Location: B?ezina
(49.8085°N, 13.6013°E)
Time: 22:08:12
(UTC+00:00)

ARIANE 6 FM1 Upper Stage - Pass Details

Date: 19 May 2025
Orbit: 531 x 610 km, 62.0° (Epoch: 15 June)

Event Time Altitude Azimuth Distance (km) Brightness Sun altitude
Rises 20:18:12 0° 227° (SW) 2,664 6.1 -11.4°
Reaches altitude 10° 20:20:23 10° 229° (SW) 1,777 5.2 -11.6°
Maximum altitude 20:24:22 79° 315° (NW) 549 2.7 -12.0°
Drops below altitude 10° 20:28:26 10° 44° (NE) 1,805 5.4 -12.4°
Sets 20:30:40 0° 46° (NE) 2,709 6.3 -12.6°
